This demonstration page uses our WeatherBlox Daily Observations layout. Learn more.

Left ArrowRight Arrow

39.92423, -83.80882

Hourly Observations for January 14, 2017

Temp ( °F °C ) Dew Point ( °F °C ) Humidity (%) Winds ( mph kmh ) Pressure ( in mb ) Visibility ( mi km ) Precip ( " mm )
12:56 am 00:56 Cloudy 30 -1.1 24 -4.4 79 79 E 10 17 30.58 1036 10 16.0934 0 0
1:56 am 01:56 Cloudy 30 -1.1 25 -3.9 82 82 E 9 15 30.58 1035 10 16.0934 0 0
2:56 am 02:56 Cloudy 30 -1.1 24 -4.4 79 79 E 7 11 30.58 1035 10 16.0934 0 0
3:37 am 03:37 Cloudy 30 -1 25 -4 80 80 E 10 17 30.56 1035 10 16.0934 0 0
3:56 am 03:56 Cloudy with Light Snow 30 -1.1 25 -3.9 82 82 E 9 15 30.54 1034 9 14.48406 0 0.0254
4:45 am 04:45 Cloudy 30 -1 25 -4 80 80 NE 8 13 30.56 1035 10 16.0934 0 0.0254
4:54 am 04:54 Cloudy 30 -1 25 -4 80 80 ENE 8 13 30.56 1035 10 16.0934 0 0.0254
4:56 am 04:56 Cloudy 30 -1.1 25 -3.9 82 82 ENE 8 13 30.54 1034 10 16.0934 0 0.0254
5:24 am 05:24 Cloudy with Light Wintry Mix 28 -2 25 -4 86 86 ENE 8 13 30.56 1035 7 11.26538 0 0.0254
5:56 am 05:56 Cloudy with Mist and Fog 29 -1.7 26 -3.3 89 89 E 7 11 30.52 1034 5 8.0467 0 0.0254
6:35 am 06:35 Cloudy with Mist and Fog 28 -2 27 -3 93 93 E 7 11 30.53 1034 3 4.82802 0 0
6:56 am 06:56 Cloudy with Mist and Fog 28 -2.2 27 -2.8 96 96 E 9 15 30.49 1033 3 4.82802 0 0
7:56 am 07:56 Cloudy with Mist and Fog 29 -1.7 28 -2.2 96 96 E 7 11 30.49 1033 5 8.0467 0 0
8:12 am 08:12 Cloudy with Mist and Fog 28 -2 28 -2 100 100 E 7 11 30.5 1033 4 6.43736 0 0
8:56 am 08:56 Cloudy with Mist and Fog 29 -1.7 28 -2.2 96 96 ESE 5 7 30.49 1033 3 4.82802 0 0
9:04 am 09:04 Cloudy with Mist and Fog 28 -2 28 -2 100 100 SE 5 7 30.5 1033 2 3.21868 0 0
9:08 am 09:08 Cloudy with Mist and Fog 28 -2 28 -2 100 100 ESE 5 7 30.5 1033 1.75 2.816345 0 0
9:54 am 09:54 Cloudy with Mist and Fog 30 -1 28 -2 93 93 E 5 7 30.5 1033 1 1.60934 0 0.0254
9:56 am 09:56 Cloudy with Mist and Fog 30 -1.1 29 -1.7 96 96 ENE 5 7 30.48 1032 1.25 2.011675 0 0.0254
10:21 am 10:21 Cloudy with Light Wintry Mix 30 -1 28 -2 93 93 E 5 7 30.48 1032 2 3.21868 0 0.0254
10:34 am 10:34 Cloudy with Light Wintry Mix 30 -1 28 -2 93 93 E 6 9 30.48 1032 1.75 2.816345 0 0.0254
10:46 am 10:46 Cloudy with Light Freezing Rain 30 -1 30 -1 100 100 E 5 7 30.48 1032 2 3.21868 0 0.0254
10:56 am 10:56 Cloudy with Mist and Fog 31 -0.6 30 -1.1 96 96 E 3 6 30.48 1032 2.5 4.02335 0 0.0254
11:13 am 11:13 Cloudy with Light Wintry Mix 30 -1 30 -1 100 100 WSW 3 6 30.5 1033 3 4.82802 0 0.0254
11:20 am 11:20 Cloudy with Light Freezing Rain 30 -1 30 -1 100 100 W 3 6 30.5 1033 2.5 4.02335 0 0.0254
11:45 am 11:45 Cloudy with Freezing Rain 30 -1 30 -1 100 100 WNW 3 6 30.5 1033 1.75 2.816345 0.01 0.254
11:52 am 11:52 Cloudy with Light Snow 30 -1 30 -1 100 100 NNW 3 6 30.5 1033 1.25 2.011675 0.02 0.508
11:56 am 11:56 Cloudy with Light Snow 31 -0.6 30 -1.1 96 96 N 3 6 30.47 1032 1.25 2.011675 0.03 0.762
12:09 pm 12:09 Cloudy with Light Freezing Rain 32 0 30 -1 93 93 NE 5 7 30.42 1030 2 3.21868 0.01 0.254
12:22 pm 12:22 Cloudy with Light Wintry Mix 32 0 30 -1 93 93 E 5 7 30.42 1030 2.5 4.02335 0.01 0.254
12:36 pm 12:36 Cloudy with Light Wintry Mix 32 0 30 -1 93 93 ENE 5 7 30.42 1030 3 4.82802 0.01 0.254
12:56 pm 12:56 Cloudy with Light Wintry Mix 32 0 31 -0.6 96 96 NNW 5 7 30.43 1031 5 8.0467 0.01 0.254
1:56 pm 13:56 Cloudy with Light Wintry Mix 32 0 31 -0.6 96 96 Calm 30.4 1030 5 8.0467 0.03 0.762
2:19 pm 14:19 Cloudy with Light Wintry Mix 32 0 30 -1 93 93 NNW 3 6 30.39 1029 2 3.21868 0 0.0254
2:26 pm 14:26 Cloudy with Light Wintry Mix 32 0 30 -1 93 93 NNW 6 9 30.39 1029 2 3.21868 0 0.0254
2:56 pm 14:56 Cloudy with Light Wintry Mix 32 0 31 -0.6 96 96 WNW 6 9 30.4 1030 2.5 4.02335 0.01 0.254
3:23 pm 15:23 Cloudy with Light Wintry Mix 32 0 30 -1 93 93 Calm 30.36 1028 1.5 2.41401 0.03 0.762
3:32 pm 15:32 Cloudy with Light Wintry Mix 32 0 30 -1 93 93 Calm 30.39 1029 3 4.82802 0.03 0.762
3:46 pm 15:46 Cloudy with Light Wintry Mix 32 0 30 -1 93 93 Calm 30.36 1028 4 6.43736 0.04 1.016
3:56 pm 15:56 Cloudy with Light Wintry Mix 33 0.6 31 -0.6 92 92 Calm 30.37 1028 4 6.43736 0.05 1.27
4:07 pm 16:07 Cloudy with Light Rain 34 1 30 -1 87 87 Calm 30.36 1028 6 9.65604 0 0.0254
4:25 pm 16:25 Cloudy with Light Rain 34 1 30 -1 87 87 NW 7 11 30.39 1029 8 12.87472 0 0.0254
4:48 pm 16:48 Cloudy with Mist and Fog 32 0 30 -1 93 93 NW 5 7 30.39 1029 5 8.0467 0 0.0254
4:56 pm 16:56 Cloudy with Mist and Fog 32 0 31 -0.6 96 96 WNW 9 15 30.42 1030 5 8.0467 0 0.0254
5:34 pm 17:34 Cloudy with Mist and Fog 32 0 30 -1 93 93 W 7 11 30.39 1029 2 3.21868 0 0
5:56 pm 17:56 Cloudy with Mist and Fog 32 0 31 -0.6 96 96 NW 6 9 30.4 1030 3 4.82802 0 0
6:56 pm 18:56 Cloudy with Mist and Fog 32 0 31 -0.6 96 96 NW 6 9 30.42 1030 3 4.82802 0 0
7:25 pm 19:25 Cloudy with Mist and Fog 32 0 30 -1 93 93 NW 6 9 30.42 1030 2.5 4.02335 0 0
7:51 pm 19:51 Cloudy with Mist and Fog 30 -1 30 -1 100 100 NW 7 11 30.42 1030 3 4.82802 0 0
7:56 pm 19:56 Cloudy with Mist and Fog 31 -0.6 31 -0.6 100 100 NW 6 9 30.42 1030 3 4.82802 0 0
8:19 pm 20:19 Cloudy with Mist and Fog 32 0 30 -1 93 93 NNW 6 9 30.42 1030 2 3.21868 0 0
8:53 pm 20:53 Cloudy with Mist and Fog 30 -1 30 -1 100 100 NNW 5 7 30.45 1031 1.75 2.816345 0 0
9:27 pm 21:27 Cloudy with Mist and Fog 30 -1 30 -1 100 100 NNW 6 9 30.45 1031 2 3.21868 0 0
9:44 pm 21:44 Cloudy with Mist and Fog 30 -1 30 -1 100 100 NNW 6 9 30.45 1031 1.5 2.41401 0 0
9:56 pm 21:56 Cloudy with Mist and Fog 31 -0.6 30 -1.1 96 96 NW 7 11 30.44 1031 2 3.21868 0 0
10:41 pm 22:41 Cloudy with Mist and Fog 30 -1 30 -1 100 100 NNW 7 11 30.48 1032 1.5 2.41401 0 0
10:56 pm 22:56 Cloudy with Mist and Fog 31 -0.6 30 -1.1 96 96 NNW 9 15 30.45 1031 1.25 2.011675 0 0
11:12 pm 23:12 Cloudy with Mist and Fog 30 -1 30 -1 100 100 NNW 7 11 30.48 1032 1 1.60934 0 0
11:25 pm 23:25 Cloudy with Mist and Fog 30 -1 30 -1 100 100 NW 6 9 30.45 1031 0.75 1.207005 0 0
11:56 pm 23:56 Cloudy with Mist and Fog 31 -0.6 30 -1.1 96 96 NW 3 6 30.44 1031 0.75 1.207005 0 0

Powered by AerisWeather